Location: Allos
(44.2333°N, 6.6333°E)
Time: 22:15:28
(UTC+00:00)

Cosmos 1821 Rocket - Pass Details

Date: 19 April 2021
Orbit: 946 x 1003 km, 82.9° (Epoch: 16 May)

Event Time Altitude Azimuth Distance (km) Brightness Sun altitude
Rises 02:09:29 0° 350° (N) 3,701 7.5 -24.1°
Reaches altitude 10° 02:12:00 10° 348° (NNW) 2,756 6.8 -23.8°
Maximum altitude 02:18:18 74° 266° (W) 1,036 3.9 -23.0°
Enters shadow 02:20:56 38° 189° (S) 1,489 4.5 -22.7°
